Weather in Hincesti

Moldova     46°49′41″N   28°35′20″E
temp.,
°C
wind,
m/s
gust,
m/s
humid.,
%
clouds,
%
prec.,
mm/h
press.,
hPa
HPBL,
m
11 april, sun
sun1100:00+5sse410620 0.0 1027268
03:00+4sse22660 0.0 102729
06:00+3sse22630 0.0 102713
09:00+8se22470 0.0 1028235
12:00+12se33310 0.0 10281500
15:00+14se22300 0.0 10261671
18:00+14ese23310 0.0 10251740
21:00+10ese11440 0.0 102610
12 april, mon
mon1200:00+8nne11480 0.0 102610
03:00+7nne125046 0.0 102510
06:00+7nne115398 0.0 102410
09:00+11ne23470 0.0 1024278
12:00+15n22380 0.0 10221122
15:00+17nne33340 0.0 10211458
18:00+17nne333597 0.0 10201465
21:00+12nne11496 0.0 102010
13 april, tue
tue1300:00+10ne115699 0.0 102010
03:00+9ene115981 0.0 101910
06:00+9ne116196 0.0 101910
09:00+12ene125294 0.0 1019247
12:00+15e2148100 0.0 10181050
15:00+14e5357100 0.0 1017605
18:00+10e5682100 0.0 1017258
21:00+10ese4687100 0.1 1017272
14 april, wed
wed1400:00+9se3592100 0.6 1016258
03:00+9se3692100 1.3 1015317
06:00+8sse4790100 0.3 1014400
09:00+8se5993100 2.1 1015429
12:00+12se6768100 0.3 10141086
15:00+11ese7773100 0.3 1014806
18:00+11ese5770100 0.1 1012964
21:00+9ese4783100 0.1 1013456
15 april, thu
thu1500:00+7ene4794100 1.3 1012367
03:00+7ne4796100 3.1 1011384
06:00+7nne4696100 1.1 1011455
09:00+7n4596100 2.6 1011323
12:00+7nnw5795100 2.1 1012436
15:00+6nw6995100 3.9 1013353
18:00+5wnw61094100 2.1 1013418
21:00+5wnw61094100 2.7 1013477